Find Local Weather

World > North America > United States > California

Los Angeles, California Regional Weather

Lat: 34.04N, Lon: 118.3W
Wx Zone: CAZ041
Warning FLW WEATHER ALERT - (More Info. Click Here) Warning
Feedback
Expires:201808160100;;122959
ASUS46 KLOX 160013
RWRCA 

SOUTHERN CALIFORNIA WEATHER ROUNDUP
NATIONAL WEATHER SERVICE OXNARD CALIFORNIA
500 PM PDT WED AUG 15 2018

NOTE: "FAIR" INDICATES FEW OR NO CLOUDS BELOW 12,000 FEET WITH NO 
SIGNIFICANT WEATHER AND/OR OBSTRUCTIONS TO VISIBILITY.

  -  STATIONS PRECEEDED BY AN ASTERISK (*) ARE NOT NWS OR FAA 
     STATIONS AND ARE NOT SUBJECT TO NWS AND FAA QUALITY CONTROL.


CAZ041-042-087-160100-
LA AND ORANGE COUNTY COASTAL AREAS

  
CITY           SKY/WX    TMP DP  RH WIND       PRES   REMARKS
L.A. DOWNTOWN  SUNNY     78  66  66 MISG      29.86S                  
L.A. AIRPORT   MOSUNNY   76  66  71 W13G21    29.88S                  
LONG BEACH     SUNNY     79  65  62 S9        29.87S                  

CITY           SKY/WX    TMP DP  RH WIND       PRES   REMARKS
AVALON           N/A     75 N/A N/A MISG        N/A                   
FULLERTON      SUNNY     80  65  59 S9        29.86S                  
*GETTY CENTER    N/A     75  64  69 SW12        N/A                   
HAWTHORNE      SUNNY     76  66  71 W10       29.88S                  
*LEO CARRILLO    N/A     75  65  70 W13         N/A                   
*LOS ALAMITOS  MOSUNNY   77  66  68 S13       29.87S                  
*REDONDO BEACH   N/A     75  65  70 CALM      29.87S                  
SANTA ANA      MOSUNNY   77  64  64 SW12      29.87F                  
STA MONICA APT PTSUNNY   78  66  66 SW10      29.87S                  
TORRANCE       MOSUNNY   77  64  65 W14       29.87R                  
*UCLA            N/A     73  64  73 SW8       29.85R                  

$$


SKY/WX - Weather  TMP - Temperature  DP - Dewpoint  RH - Relative Humidity
WIND - Wind Direction/Speed PRES - Barometric Pressure